Regional Weather Roundup
Issued by NWS Lake Charles, LA

Home | Current Version | Previous Version | Text Only | Print | Product List | Glossary On
Versions: 1 2 3 4 5 6 7 8 9 10 11 12 13 14 15 16 17 18 19 20 21 22 23 24 25 26 27 28 29 30 31 32 33 34 35 36 37 38 39 40 41 42 43 44 45 46 47 48 49 50
000
ASUS44 KLCH 290210
RWRLCH
RWRLCH
REGIONAL WEATHER ROUNDUP
NATIONAL WEATHER SERVICE LAKE CHARLES LA
900 PM CDT SAT MAR 28 2015

Note: "fair" indicates few or no clouds below 12,000 feet with no
significant weather and/or obstructions to visibility.


ACROSS SOUTHEAST TEXAS

CITY           SKY/WX    TMP DP  RH WIND       PRES   REMARKS
BEAUMONT       CLEAR     64  60  87 S10       30.12R
BEAUMONT CITY    N/A     64  59  85 S12       30.12R
ORANGE         CLEAR     65  58  77 S12G17    30.14R
JASPER         CLEAR     70  55  57 S5        30.12R
$$

ACROSS CENTRAL LOUISIANA

CITY           SKY/WX    TMP DP  RH WIND       PRES   REMARKS
LEESVILLE      CLEAR     65  56  72 S8        30.10R
FULLERTON        N/A     68  53  58 VRB3      30.10R
ALEXANDRIA INT CLEAR     64  53  67 S7        30.12R
ESLER FIELD    CLEAR     63  51  65 S5        30.14R
DERIDDER         N/A     65  56  72 CALM      30.13R
OAKDALE        CLEAR     62  55  75 CALM      30.13R
OPELOUSAS        N/A     62  55  78 S9        30.15R
$$

ACROSS SOUTHWEST AND SOUTH CENTRAL LOUISIANA

CITY           SKY/WX    TMP DP  RH WIND       PRES   REMARKS
SULPHUR        CLEAR     62  59  89 S6        30.14R
LAKE CHARLES   CLEAR     62  57  83 S6        30.13R
CHENNAULT INT  CLEAR     63  55  77 S8          N/A
CAMERON PHI    NOT AVBL
DEQUINCY         N/A     63  58  84 S7        30.12R
JENNINGS         N/A     63  56  80 S7        30.14R
LAFAYETTE      CLEAR     62  55  77 S8        30.16S
NEW IBERIA     CLEAR     59  54  83 SE8       30.18R
ABBEVILLE        N/A     60  56  88 SE7       30.17R
PATTERSON      CLEAR     59  52  77 SE6       30.19R
SALT POINT       N/A     61  56  83 SE6       30.18R
$$

SELECTED SITES ACROSS THE REGION

CITY           SKY/WX    TMP DP  RH WIND       PRES   REMARKS
HOUSTON BUSH   CLEAR     71  40  32 S8        30.09R
HOUSTON HOBBY  CLEAR     67  49  52 S8        30.11R
GALVESTON      CLEAR     65  63  93 S6        30.14R
COLLEGE STAT   CLEAR     70  45  40 S10       30.05R
CONROE         CLEAR     71  35  26 S13       30.09R
HUNTSVILLE     CLEAR     70  43  37 S12       30.06R
LUFKIN         CLEAR     64  50  60 E5        30.06R
SHREVEPORT     CLEAR     66  48  52 E6        30.07R
MONROE         CLEAR     53  38  56 NE12      30.20R
NATCHEZ MS     CLEAR     57  43  58 NE6       30.17R
BATON ROUGE    CLEAR     60  49  66 SE9       30.18R
N.O. INTL ARPT CLEAR     59  46  62 SE7       30.21R
SLIDELL        CLEAR     56  48  74 S5        30.21R
$$

MARINE REPORTS

STATION/POSITION TIME  TEMP    WIND        PRES    VSBY  WAVE
                       AIR SEA DIR/SP/G                  HT/PER
                 (UTC) (F)     (DEG/KT/KT) (MB)    (MI)  (FT/S)
BUOY 30 S HIGH I 0150   66 65  180/  8/  8 1020.2R         1/ 4
SEA RIM ST PARK  0200   66     190/  9/ 11 1021.2R
PORT ARTHUR      0106      68  190/  8/ 12 1020.1R
SABINE PASS N    0100   66 67  200/ 10/ 13 1020.2R
TEXAS POINT      NOT AVBL
CALCASIEU PASS   0100   66 65  200/ 11/ 13   N/A
LK CHARLES BEACH 0100   66 67              1020.2R
MARSH ISLAND     NOT AVBL
FRESH WATER LOCK 0100   65 67  140/  9/ 10 1021.1F
AMERADA PASS     0100   62 60  140/  4/  6 1022.0R
$$



USA.gov is the U.S. government's official web portal to all federal, state and local government web resources and services.